Granada, Spain

9:48 AM CEST on March 28, 2017 (GMT +0200)
Granada

Weather History for LEGR - February, 2014

Change the Weather History Date:

Wednesday, February 26, 2014

  Actual Average Record
Temperature  
Mean Temperature 48 °F -  
Max Temperature 57 °F 63 °F 73 °F (1997)
Min Temperature 40 °F 37 °F 26 °F (2012)
Degree Days  
Heating Degree Days 16    
Moisture  
Dew Point 39 °F    
Average Humidity 73    
Maximum Humidity 100    
Minimum Humidity 34    
Precipitation  
Precipitation 0.00 in - - ()
Sea Level Pressure  
Sea Level Pressure 30.33 in    
Wind  
Wind Speed 3 mph ()    
Max Wind Speed 15 mph    
Max Gust Speed -    
Visibility 6.2 miles    
Events Fog    
Averages and records for this station are not official NWS values.
T = Trace of Precipitation, MM = Missing Value Source: Averaged Metar Reports

Daily Weather History Graph

Daily Weather History Graph

Search for Another Location

Airport or City:

Trip Planner

Search our weather history database for the weather conditions in past years. The results will help you decide how hot, cold, wet, or windy it might be!

Date:

Astronomy

Feb. 26, 2014 Rise Set
Actual Time 7:50 AM CET 7:06 PM CET
Civil Twilight 7:24 AM CET 7:32 PM CET
Nautical Twilight 6:54 AM CET 8:02 PM CET
Astronomical Twilight 6:24 AM CET 8:32 PM CET
Moon 5:21 AM CET (2/26) 4:06 PM CET (2/26)
Length of Visible Light 12h 07m
Length of Day
11h 15m
Waning Crescent, 12% of the Moon is Illuminated
Feb 26
Waning Crescent
Mar 1
New
Mar 8
First Quarter
Mar 16
Full
Mar 24
Last Quarter

Hourly Weather History & Observations

Time (CET) Temp. Windchill Dew Point Humidity Pressure Visibility Wind Dir Wind Speed Gust Speed Precip Events Conditions
12:00 AM 46 °F - 44 °F 89% 30.31 in 9 mi SSW 3.5 mph - -  
1:00 AM 44 °F - 42 °F 92% 30.32 in 7 mi Calm Calm - -  
2:00 AM 43 °F - 42 °F 96% 30.32 in 5 mi SW 2.3 mph - -   Mist
3:00 AM 42 °F - 41 °F 96% 30.32 in 6 mi SSW 4.6 mph - -   Mist
4:00 AM 41 °F - 40 °F 95% 30.31 in 2 mi NNE 2.3 mph - -   Mist
5:00 AM 42 °F - 42 °F 100% 30.32 in 2 mi SSE 1.2 mph - - Fog Fog
6:00 AM 42 °F - 42 °F 99% 30.32 in 0 mi SE 2.3 mph - - Fog Fog
6:00 AM 42.8 °F - 42.8 °F 100% 30.27 in 0.2 mi Variable 2.3 mph - N/A Fog Fog
6:30 AM 42.8 °F - 42.8 °F 100% 30.27 in 0.6 mi Variable 2.3 mph - N/A Fog Patches of Fog
6:54 AM 42.8 °F - 42.8 °F 100% 30.27 in 0.2 mi Variable 1.2 mph - N/A Fog Patches of Fog
7:00 AM 42 °F - 42 °F 100% 30.33 in 0 mi WNW 1.2 mph - - Fog Patches of Fog
7:00 AM 42.8 °F - 42.8 °F 100% 30.27 in 0.2 mi Variable 1.2 mph - N/A Fog Patches of Fog
7:30 AM 42.8 °F - 42.8 °F 100% 30.27 in 0.1 mi Variable 1.2 mph - N/A Fog Patches of Fog
8:00 AM 42 °F - 42 °F 99% 30.35 in 0 mi NW 2.3 mph - - Fog Heavy Fog
8:00 AM 42.8 °F - 42.8 °F 100% 30.30 in 0.1 mi Variable 1.2 mph - N/A Fog Fog
8:30 AM 42.8 °F - 42.8 °F 100% 30.30 in 0.1 mi Variable 1.2 mph - N/A Fog Fog
9:00 AM 42.8 °F - 42.8 °F 100% 30.30 in 0.2 mi Variable 1.2 mph - N/A Fog Fog
9:30 AM 42.8 °F - 42.8 °F 100% 30.33 in 0.3 mi Variable 1.2 mph - N/A Fog Fog
10:00 AM 42 °F - 42 °F 100% 30.39 in 0 mi SW 4.6 mph - - Fog Partial Fog
10:00 AM 42.8 °F 41.1 °F 42.8 °F 100% 30.33 in 0.3 mi WSW 3.5 mph - N/A Fog Fog
10:18 AM 42.8 °F - 42.8 °F 100% 30.33 in 0.5 mi Variable 2.3 mph - N/A Fog Fog
10:30 AM 42.8 °F - 42.8 °F 100% 30.33 in 0.6 mi Calm Calm - N/A Fog Fog
10:33 AM 42.8 °F - 42.8 °F 100% 30.33 in 0.9 mi Calm Calm - N/A Fog Mostly Cloudy
11:00 AM 44 °F - 43 °F 93% 30.39 in 3 mi Calm Calm - - Fog Fog
11:00 AM 42.8 °F - 42.8 °F 100% 30.33 in 1.2 mi Calm Calm - N/A Fog Mostly Cloudy
11:06 AM 42.8 °F - 42.8 °F 100% 30.36 in 2.5 mi Calm Calm - N/A Fog Mostly Cloudy
12:00 PM 51 °F - 43 °F 66% 30.36 in 7 mi West 2.3 mph - -   Mist
12:30 PM 48.2 °F - 44.6 °F 87% 30.36 in 5.6 mi West 3.5 mph - N/A   Mostly Cloudy
1:00 PM 53 °F - 41 °F 54% 30.35 in 7 mi WNW 2.3 mph - -   Partly Cloudy
1:00 PM 50.0 °F - 42.8 °F 76% 30.33 in 6.2 mi Variable 1.2 mph - N/A   Scattered Clouds
1:30 PM 53.6 °F - 39.2 °F 58% 30.30 in 6.2 mi Calm Calm - N/A   Partly Cloudy
2:00 PM 56 °F - 38 °F 40% 30.30 in 12 mi NNW 2.3 mph - -   Partly Cloudy
2:00 PM 53.6 °F - 39.2 °F 58% 30.30 in 6.2 mi Variable 2.3 mph - N/A   Scattered Clouds
2:30 PM 55.4 °F - 39.2 °F 54% 30.30 in 6.2 mi Calm Calm - N/A   Scattered Clouds
3:00 PM 57 °F - 37 °F 36% 30.28 in 19 mi NNW 11.5 mph - -  
3:00 PM 55.4 °F - 39.2 °F 54% 30.30 in 6.2 mi NNW 12.7 mph - N/A   Scattered Clouds
3:30 PM 53.6 °F - 33.8 °F 47% 30.30 in 6.2 mi NNW 10.4 mph - N/A   Partly Cloudy
4:00 PM 55 °F - 35 °F 34% 30.30 in 16 mi NNW 15.0 mph - -   Partly Cloudy
4:00 PM 53.6 °F - 37.4 °F 54% 30.30 in 6.2 mi NNW 15.0 mph - N/A   Partly Cloudy
4:30 PM 53.6 °F - 35.6 °F 51% 30.30 in 6.2 mi NNW 12.7 mph - N/A   Partly Cloudy
5:00 PM 56 °F - 36 °F 34% 30.30 in 19 mi NNW 4.6 mph - -  
5:00 PM 53.6 °F - 35.6 °F 51% 30.30 in 6.2 mi North 5.8 mph - N/A   Partly Cloudy
5:30 PM 53.6 °F - 37.4 °F 54% 30.30 in 6.2 mi NW 10.4 mph - N/A   Partly Cloudy
6:00 PM 54 °F - 35 °F 37% 30.30 in 17 mi NNW 10.4 mph - -  
6:00 PM 53.6 °F - 33.8 °F 47% 30.30 in 6.2 mi NNW 10.4 mph - N/A   Partly Cloudy
6:30 PM 53.6 °F - 35.6 °F 51% 30.30 in 6.2 mi NNW 10.4 mph - N/A   Partly Cloudy
7:00 PM 51 °F - 35 °F 43% 30.34 in 19 mi NNW 6.9 mph - -   Scattered Clouds
7:00 PM 51.8 °F - 35.6 °F 54% 30.30 in 6.2 mi NNW 6.9 mph - N/A   Partly Cloudy
7:30 PM 50.0 °F - 35.6 °F 58% 30.33 in 6.2 mi NNW 3.5 mph - N/A   Partly Cloudy
8:00 PM 48 °F - 33 °F 45% 30.38 in 19 mi NW 9.2 mph - -  
8:00 PM 50.0 °F - 33.8 °F 54% 30.33 in 6.2 mi NNW 9.2 mph - N/A   Partly Cloudy
8:30 PM 48.2 °F - 33.8 °F 58% 30.36 in 6.2 mi WNW 5.8 mph - N/A   Partly Cloudy
9:00 PM 48 °F - 33 °F 43% 30.40 in 19 mi West 4.6 mph - -  
9:00 PM 50.0 °F - 33.8 °F 54% 30.36 in 6.2 mi West 4.6 mph - N/A   Partly Cloudy
9:30 PM 46.4 °F 45.2 °F 33.8 °F 62% 30.39 in 6.2 mi NNW 3.5 mph - N/A   Partly Cloudy
10:00 PM 46 °F - 33 °F 50% 30.43 in 19 mi NNW 4.6 mph - -   Scattered Clouds
10:00 PM 46.4 °F 44.3 °F 33.8 °F 62% 30.39 in 6.2 mi North 4.6 mph - N/A   Partly Cloudy
10:30 PM 44.6 °F - 33.8 °F 66% 30.39 in 6.2 mi Calm Calm - N/A   Partly Cloudy
11:00 PM 45 °F - 33 °F 52% 30.45 in 19 mi North 2.3 mph - -  
11:00 PM 44.6 °F - 33.8 °F 66% 30.42 in - Variable 1.2 mph - N/A   Clear